[[{"header":{"parameterUnit":"m.s-1","parameterCategory":1,"la1":30.2991,"la2":30.254,"lo1":-89.0895,"lo2":-89.0444,"dy":0.0017,"dx":0.0017,"nx":28,"ny":28,"refTime":"2025-07-07T09:00:00:Z","depth":0,"parameterNumber":2,"parameterNumberName":"U-component_of_WINDS"},"data":[0,0,0,0,0,0,0,0,0,0,0,0,0,0,0,0,0,0,0,0,0,0,0,0,0,0,0,0,0,0,0,0,0,0,0,0,0,0,0,0,0,0,0,0,0,0,0,0,0,0,0,0,0,0,0,0,0,0,4.0805,4.0807,0,4.0935,4.0936,4.0938,4.0881,4.0878,4.0875,4.0872,4.1006,4.1012,4.1018,0,0,0,0,0,0,0,0,0,0,0,0,0,4.0508,4.0514,4.0805,4.0807,4.0808,4.0934,4.0936,4.0938,4.0882,4.0878,4.0874,4.0871,4.1003,4.1011,4.1019,0,0,0,0,0,0,0,0,0,0,0,0,0,4.0637,4.0516,4.0805,4.0796,4.0796,4.0934,4.0936,4.0938,4.0883,4.0878,4.0873,4.0869,4.1001,4.101,4.102,4.1175,0,0,4.105,4.1054,0,0,0,0,0,0,0,0,4.063,4.0648,4.0795,4.0796,4.0797,4.0887,4.088,4.1018,4.0884,4.085,4.0872,4.0866,4.097,4.0982,4.1017,4.1181,4.1187,4.1051,4.1057,4.1061,4.1064,0,0,0,0,0,0,0,4.0621,4.0642,4.0856,4.0797,4.0799,4.0784,4.0798,4.0906,4.0935,4.0852,4.0849,4.0865,4.097,4.1007,4.1019,4.1189,4.105,4.1059,4.1065,4.1069,4.1483,4.1488,0,0,0,0,0,0,4.0612,4.0635,4.0852,4.086,4.07,4.0794,4.0808,4.0863,4.0934,4.094,4.0869,4.0862,4.0993,4.1008,4.1024,4.1207,4.1061,4.107,4.1075,4.1478,4.1484,4.149,0,0,0,0,0,0,4.0606,4.0632,4.0847,4.0747,4.0773,4.0804,4.0866,4.0868,4.0906,4.0946,4.0951,4.0902,4.099,4.101,4.1137,4.1211,4.1074,4.1083,4.1472,4.148,4.1487,4.1576,0,0,0,0,0,0,4.0598,4.063,4.069,4.0749,4.0779,4.0958,4.087,4.0874,4.0923,4.0915,4.0978,4.0984,4.0988,4.1123,4.1147,4.1222,4.1091,4.1466,4.1476,4.1485,4.1567,4.1586,4.1602,0,0,0,0,0,4.0587,4.0711,4.0693,4.072,4.0854,4.0963,4.098,4.0981,4.0929,4.0988,4.1014,4.0982,4.12,4.1136,4.1163,4.1242,4.1461,4.1473,4.1484,4.1559,4.1582,4.1602,0,0,0,0,0,0,4.0661,4.0718,4.07,4.0846,4.09,4.0953,4.1028,4.1007,4.1077,4.1066,4.1065,4.108,4.121,4.1239,4.1168,4.1394,4.1322,4.134,4.137,4.1392,4.141,4.1399,4.1099,0,0,0,0,0,4.0694,4.0778,4.0824,4.0948,4.0976,4.0998,4.1046,4.1041,4.1097,4.112,4.1155,4.121,4.129,4.1343,4.142,4.1571,4.1583,4.1639,4.1657,4.1671,4.1685,4.1764,4.1788,4.1528,4.1528,4.1528,0,0,4.0764,4.0805,4.0859,4.0964,4.1005,4.1091,4.1017,4.1112,4.1175,4.1135,4.1255,4.1283,4.1344,4.1483,4.1546,4.1511,4.176,4.1686,4.1697,4.1704,4.1778,4.1803,4.1825,4.1536,4.1535,4.1533,0,0,4.0933,4.0975,4.1081,4.1124,4.1186,4.12,4.1225,4.1282,4.1298,4.1419,4.1389,4.1465,4.1604,4.1648,4.1689,4.1873,4.1845,4.1898,4.199,4.2067,4.2087,4.2106,4.2168,4.2191,4.1913,4.1913,4.1913,0,4.1012,4.114,4.1139,4.1235,4.1281,4.1247,4.1354,4.1395,4.148,4.1512,4.1473,4.1644,4.1684,4.183,4.1875,4.191,4.1938,4.189,4.2085,4.2103,4.212,4.2179,4.2203,4.1919,4.1918,4.1917,4.1917,0,4.1231,4.132,4.1399,4.148,4.1535,4.1637,4.165,4.1706,4.1697,4.1714,4.1836,4.1882,4.1965,4.2001,4.1994,4.2146,4.2122,4.2084,4.2011,4.215,4.2206,4.2229,4.1927,4.1925,4.1923,4.1922,0,0,4.1451,4.1528,4.1557,4.1592,4.1658,4.1727,4.1826,4.1906,4.1953,4.2013,4.2094,4.2212,4.2175,4.2222,4.2219,4.2287,4.2426,4.224,4.2241,4.227,4.2592,4.2618,4.2645,4.2409,4.2413,4.2417,4.2586,0,4.1622,4.1795,4.1796,4.1954,4.2035,4.2003,4.2089,4.2138,4.2157,4.2227,4.2248,4.233,4.2278,4.2305,4.2371,4.2395,4.249,4.2383,4.2482,4.2486,4.2465,4.2675,4.2703,4.286,4.2608,4.2612,4.2615,0,4.1846,4.1911,4.2077,4.2128,4.2162,4.2239,4.2311,4.238,4.2435,4.2443,4.2494,4.2481,4.258,4.2506,4.2641,4.2568,4.2609,4.2627,4.2633,4.264,4.2557,4.2684,4.2911,4.2933,4.265,4.2647,4.2644,0,4.1985,4.2114,4.2229,4.2261,4.2325,4.2379,4.2408,4.2458,4.2505,4.2569,4.2599,4.2675,4.2715,4.2773,4.2779,4.2726,4.2915,4.2842,4.2922,4.2922,4.2962,4.2959,4.3195,4.2994,4.2993,4.2993,4.2992,0,4.2175,4.2277,4.2292,4.2362,4.2475,4.2475,4.2586,4.2611,4.2655,4.2729,4.2708,4.2777,4.2783,4.2855,4.2861,4.297,4.299,4.2998,4.2998,4.2998,4.2996,4.3023,4.3011,4.2999,4.2998,4.2996,4.2995,0,4.2348,4.2363,4.2485,4.2535,4.255,4.263,4.2673,4.2739,4.2755,4.2849,4.2871,4.2896,4.2978,4.2991,4.3089,4.3093,4.3223,4.3213,4.3204,4.3201,4.328,4.3271,4.3539,4.3573,4.3352,4.3354,4.3356,0,4.2467,4.2544,4.2602,4.2649,4.268,4.2758,4.2805,4.2808,4.2859,4.2925,4.2983,4.3064,4.3128,4.3262,4.3288,4.3362,4.3352,4.3441,4.3363,4.336,4.3349,4.3343,4.3349,4.3455,4.3457,4.3459,4.3461,0,4.2675,4.2677,4.2747,4.2819,4.2876,4.2932,4.2986,4.3026,4.3035,4.3093,4.3177,4.3226,4.3325,4.3404,4.3477,4.3506,4.3485,4.3485,4.3507,4.3507,4.3497,4.35,4.3241,4.3479,4.3477,4.3476,4.3475,4.3474,4.2822,4.2888,4.2938,4.3015,4.3055,4.3105,4.3169,4.3192,4.3262,4.3341,4.3339,4.343,4.3481,4.3576,4.361,4.3681,4.3652,4.3685,4.3693,4.37,4.3706,4.3488,4.3695,4.3694,4.3694,4.3694,4.3693,0,4.3026,4.3056,4.3127,4.3201,4.3262,4.3236,4.3293,4.3345,4.3425,4.3474,4.3537,4.3632,4.3708,4.374,4.3815,4.3865,4.3857,4.3884,4.3879,4.3885,4.3729,4.3701,4.3889,4.3889,4.3889,4.3889,4.3889,4.3889,4.3139,4.3248,4.3256,4.3384,4.3413,4.3502,4.3536,4.3581,4.362,4.3726,4.3789,4.3809,4.385,4.3927,4.3995,4.4003,4.403,4.4061,4.4064,4.3917,4.3897,4.3878,4.3851,4.4068,4.4068,4.4214,4.4215,4.4216]},{"header":{"parameterUnit":"m.s-1","parameterCategory":1,"la1":30.2991,"la2":30.254,"lo1":-89.0895,"lo2":-89.0444,"dy":0.0017,"dx":0.0017,"nx":28,"ny":28,"refTime":"2025-07-07T09:00:00:Z","depth":0,"parameterNumber":3,"parameterNumberName":"V-component_of_WINDS"},"data":[0,0,0,0,0,0,0,0,0,0,0,0,0,0,0,0,0,0,0,0,0,0,0,0,0,0,0,0,0,0,0,0,0,0,0,0,0,0,0,0,0,0,0,0,0,0,0,0,0,0,0,0,0,0,0,0,0,0,2.6594,2.6594,0,2.6605,2.6605,2.6605,2.6558,2.6557,2.6555,2.6554,2.6566,2.6568,2.6569,0,0,0,0,0,0,0,0,0,0,0,0,0,2.6533,2.6535,2.6594,2.6594,2.6595,2.6605,2.6605,2.6605,2.6558,2.6557,2.6555,2.6553,2.6566,2.6567,2.6569,0,0,0,0,0,0,0,0,0,0,0,0,0,2.6554,2.6535,2.6594,2.6572,2.6571,2.6605,2.6605,2.6605,2.6559,2.6557,2.6555,2.6553,2.6565,2.6567,2.657,2.6626,0,0,2.6577,2.6578,0,0,0,0,0,0,0,0,2.6552,2.6556,2.6576,2.6574,2.6572,2.6578,2.6588,2.6612,2.6559,2.6563,2.6554,2.6552,2.6572,2.6573,2.658,2.6626,2.6627,2.6577,2.6579,2.658,2.658,0,0,0,0,0,0,0,2.6551,2.6555,2.6598,2.6576,2.6574,2.6562,2.6563,2.6592,2.6579,2.6563,2.6559,2.6561,2.657,2.6578,2.658,2.6627,2.6577,2.6579,2.6581,2.6582,2.6716,2.6718,0,0,0,0,0,0,2.6553,2.6554,2.6598,2.6599,2.6557,2.6565,2.6565,2.6578,2.6579,2.6577,2.6563,2.6559,2.6575,2.6577,2.658,2.6643,2.658,2.6582,2.6583,2.6714,2.6717,2.6719,0,0,0,0,0,0,2.6551,2.6557,2.6598,2.6576,2.658,2.6568,2.6583,2.6579,2.6587,2.6579,2.6576,2.6573,2.6573,2.6577,2.6614,2.6643,2.6583,2.6585,2.6711,2.6715,2.6718,2.6772,0,0,0,0,0,0,2.655,2.6557,2.6578,2.6576,2.6581,2.6632,2.6585,2.6581,2.6591,2.6586,2.6587,2.6586,2.6572,2.661,2.6616,2.6646,2.6587,2.6709,2.6713,2.6717,2.6768,2.6777,2.6785,0,0,0,0,0,2.6548,2.6594,2.658,2.6585,2.6608,2.6633,2.6636,2.6619,2.6594,2.6615,2.6609,2.6586,2.6639,2.6615,2.6621,2.6651,2.6707,2.6712,2.6716,2.6764,2.6775,2.6784,0,0,0,0,0,0,2.6601,2.6594,2.6577,2.6625,2.663,2.6625,2.6652,2.6632,2.6645,2.664,2.6618,2.6619,2.6659,2.6659,2.6632,2.6704,2.6669,2.6675,2.6702,2.6713,2.6721,2.672,2.6589,0,0,0,0,0,2.6618,2.664,2.6632,2.6674,2.6677,2.6664,2.6675,2.6661,2.6666,2.6668,2.6665,2.6671,2.6688,2.6701,2.6717,2.6767,2.6766,2.6791,2.68,2.6807,2.6812,2.6836,2.6846,2.6735,2.6735,2.6735,0,0,2.6654,2.6653,2.6668,2.6685,2.6687,2.6709,2.6667,2.6692,2.6708,2.6672,2.6706,2.6704,2.6709,2.6752,2.6771,2.6753,2.6842,2.6813,2.6818,2.682,2.6842,2.6853,2.6862,2.6738,2.6737,2.6737,0,0,2.673,2.6732,2.6766,2.6769,2.6772,2.6763,2.6771,2.6769,2.6766,2.6799,2.6772,2.679,2.6822,2.6826,2.6832,2.6907,2.6885,2.6913,2.6957,2.698,2.6989,2.6997,2.7022,2.7031,2.6918,2.6918,2.6918,0,2.6775,2.6806,2.6786,2.6813,2.682,2.6787,2.6821,2.6825,2.6834,2.684,2.6819,2.6856,2.6858,2.69,2.6918,2.6925,2.6932,2.6912,2.699,2.6997,2.7004,2.7027,2.7037,2.6922,2.6921,2.6921,2.6921,0,2.6859,2.6882,2.6909,2.6917,2.6927,2.6958,2.6941,2.6954,2.6939,2.6931,2.6965,2.6964,2.6979,2.6988,2.6974,2.7028,2.7016,2.6993,2.6957,2.7018,2.7039,2.7048,2.6926,2.6925,2.6924,2.6923,0,0,2.6971,2.6965,2.6975,2.6977,2.6977,2.6994,2.7022,2.7035,2.7046,2.7053,2.7074,2.7101,2.7079,2.7086,2.7072,2.7092,2.7149,2.7066,2.7066,2.708,2.7205,2.7221,2.7232,2.7134,2.7136,2.7137,2.7204,0,2.7044,2.709,2.7072,2.712,2.7139,2.7106,2.713,2.7133,2.7126,2.7141,2.7133,2.7152,2.7122,2.7126,2.7145,2.7138,2.7173,2.7133,2.7154,2.7155,2.7152,2.7244,2.7262,2.7325,2.7213,2.7214,2.7215,0,2.7136,2.7144,2.7193,2.7188,2.7195,2.7217,2.7226,2.7241,2.7242,2.7236,2.7242,2.7222,2.7248,2.7213,2.7247,2.722,2.7227,2.7225,2.7227,2.7227,2.7188,2.7245,2.7345,2.7354,2.7228,2.7227,2.7226,0,2.7209,2.7233,2.7265,2.7268,2.7263,2.7278,2.7277,2.7276,2.7284,2.7292,2.7297,2.7308,2.7314,2.7323,2.7307,2.7283,2.7343,2.7307,2.7337,2.7338,2.7351,2.735,2.7451,2.7358,2.7358,2.7358,2.7357,0,2.7292,2.7323,2.7298,2.7317,2.735,2.7328,2.7362,2.7357,2.7356,2.7374,2.7347,2.7364,2.7342,2.7357,2.7344,2.7373,2.7377,2.7371,2.7367,2.7373,2.7373,2.7377,2.7371,2.736,2.736,2.7359,2.7359,0,2.738,2.7364,2.7396,2.7388,2.7386,2.7411,2.7403,2.7421,2.7411,2.7433,2.7437,2.7422,2.7438,2.7422,2.7438,2.7429,2.7468,2.7458,2.7467,2.7464,2.7494,2.7491,2.7601,2.7613,2.7513,2.7514,2.7515,0,2.7433,2.7455,2.7448,2.7458,2.7457,2.7473,2.748,2.7459,2.7468,2.7469,2.7486,2.7499,2.7508,2.7535,2.7525,2.7536,2.7526,2.7563,2.7527,2.7531,2.7524,2.7522,2.7523,2.757,2.7571,2.7572,2.7573,0,2.7528,2.7518,2.753,2.7538,2.7547,2.7552,2.7556,2.7565,2.7543,2.7554,2.7569,2.7576,2.759,2.7603,2.761,2.7608,2.7587,2.7585,2.7592,2.7597,2.76,2.7597,2.7485,2.7582,2.7581,2.7581,2.758,2.758,2.7599,2.7616,2.7613,2.7626,2.7626,2.7629,2.7644,2.7635,2.7647,2.7656,2.7643,2.7661,2.766,2.7667,2.7668,2.7681,2.7665,2.7676,2.7679,2.7682,2.7685,2.7599,2.7683,2.7682,2.7682,2.7682,2.7682,0,2.7691,2.7687,2.7699,2.7703,2.7713,2.7691,2.7693,2.7702,2.7718,2.7718,2.7727,2.7743,2.7755,2.7745,2.7755,2.7767,2.7757,2.777,2.7768,2.7768,2.77,2.7692,2.7778,2.7778,2.7778,2.7778,2.7778,2.7778,2.774,2.7767,2.7757,2.7784,2.778,2.7796,2.7799,2.7801,2.7801,2.7819,2.7828,2.7822,2.7818,2.7826,2.7835,2.7832,2.7836,2.7852,2.7846,2.7782,2.7773,2.7764,2.7756,2.7854,2.7854,2.7912,2.7913,2.7913]}]]